iso_date,Year,Hour,Min,DOY,POS_DOY,Lat,Lon,BP,Ts,Ta,has_bp,has_ts,has_ta,BuoyID,Buoy_Type,Buoy_Owner,Logistics,Hemisphere
2022-08-27T12:00:00Z,2022,12,0,239.5,239.5,89.9372,-37.9868,1016.9,-999.0,0.3,yes,no,yes,300534061252920,Snow_Buoy,AWI,unknown,North
2022-08-27T13:00:02Z,2022,13,0,239.5417,239.5417,89.9356,-36.6486,1017.4,-999.0,0.3,yes,no,yes,300534061252920,Snow_Buoy,AWI,unknown,North
2022-08-27T13:59:57Z,2022,14,0,239.5833,239.5833,89.9338,-34.9382,1017.7,-999.0,0.2,yes,no,yes,300534061252920,Snow_Buoy,AWI,unknown,North
2022-08-27T15:00:00Z,2022,15,0,239.625,239.625,89.9316,-33.523,1018.2,-999.0,0.3,yes,no,yes,300534061252920,Snow_Buoy,AWI,unknown,North
2022-08-27T16:00:02Z,2022,16,0,239.6667,239.6667,89.9288,-32.4416,1018.5,-999.0,0.3,yes,no,yes,300534061252920,Snow_Buoy,AWI,unknown,North
2022-08-27T16:59:57Z,2022,17,0,239.7083,239.7083,89.9256,-31.8092,1018.8,-999.0,0.3,yes,no,yes,300534061252920,Snow_Buoy,AWI,unknown,North
2022-08-27T18:00:00Z,2022,18,0,239.75,239.75,89.9224,-31.4288,1019.1,-999.0,0.4,yes,no,yes,300534061252920,Snow_Buoy,AWI,unknown,North
2022-08-27T19:00:02Z,2022,19,0,239.7917,239.7917,89.9194,-31.3686,1019.5,-999.0,0.3,yes,no,yes,300534061252920,Snow_Buoy,AWI,unknown,North
2022-08-27T19:59:57Z,2022,20,0,239.8333,239.8333,89.9166,-31.471,1019.7,-999.0,0.1,yes,no,yes,300534061252920,Snow_Buoy,AWI,unknown,North
2022-08-27T21:00:00Z,2022,21,0,239.875,239.875,89.9142,-31.4732,1020.1,-999.0,-0.1,yes,no,yes,300534061252920,Snow_Buoy,AWI,unknown,North
2022-08-27T22:00:02Z,2022,22,0,239.9167,239.9167,89.9122,-31.2142,1020.5,-999.0,0.2,yes,no,yes,300534061252920,Snow_Buoy,AWI,unknown,North
2022-08-27T22:59:57Z,2022,23,0,239.9583,239.9583,89.9104,-30.6592,1021.0,-999.0,0.4,yes,no,yes,300534061252920,Snow_Buoy,AWI,unknown,North
2022-08-28T00:00:00Z,2022,0,0,240.0,240.0,89.909,-30.0458,1021.1,-999.0,0.4,yes,no,yes,300534061252920,Snow_Buoy,AWI,unknown,North
2022-08-28T01:00:02Z,2022,1,0,240.0417,240.0417,89.9076,-29.2258,1021.3,-999.0,0.5,yes,no,yes,300534061252920,Snow_Buoy,AWI,unknown,North
2022-08-28T01:59:57Z,2022,2,0,240.0833,240.0833,89.9058,-28.3162,1021.5,-999.0,0.6,yes,no,yes,300534061252920,Snow_Buoy,AWI,unknown,North
2022-08-28T03:00:00Z,2022,3,0,240.125,240.125,89.904,-27.4988,1021.7,-999.0,0.6,yes,no,yes,300534061252920,Snow_Buoy,AWI,unknown,North
2022-08-28T04:00:02Z,2022,4,0,240.1667,240.1667,89.9018,-26.8752,1022.0,-999.0,0.7,yes,no,yes,300534061252920,Snow_Buoy,AWI,unknown,North
2022-08-28T04:59:57Z,2022,5,0,240.2083,240.2083,89.8994,-26.4224,1022.2,-999.0,0.7,yes,no,yes,300534061252920,Snow_Buoy,AWI,unknown,North
2022-08-28T06:00:00Z,2022,6,0,240.25,240.25,89.897,-26.1456,1022.4,-999.0,0.5,yes,no,yes,300534061252920,Snow_Buoy,AWI,unknown,North
2022-08-28T07:00:02Z,2022,7,0,240.2917,240.2917,89.8946,-25.9728,1022.6,-999.0,0.8,yes,no,yes,300534061252920,Snow_Buoy,AWI,unknown,North
2022-08-28T07:59:57Z,2022,8,0,240.3333,240.3333,89.8924,-25.8348,1022.9,-999.0,0.8,yes,no,yes,300534061252920,Snow_Buoy,AWI,unknown,North
2022-08-28T09:00:00Z,2022,9,0,240.375,240.375,89.8904,-25.712,1023.1,-999.0,0.8,yes,no,yes,300534061252920,Snow_Buoy,AWI,unknown,North
2022-08-28T10:00:02Z,2022,10,0,240.4167,240.4167,89.8892,-25.5358,1023.4,-999.0,0.8,yes,no,yes,300534061252920,Snow_Buoy,AWI,unknown,North
2022-08-28T10:59:57Z,2022,11,0,240.4583,240.4583,89.8884,-25.2104,1023.7,-999.0,0.5,yes,no,yes,300534061252920,Snow_Buoy,AWI,unknown,North
2022-08-28T12:00:00Z,2022,12,0,240.5,240.5,89.8876,-24.7708,1024.1,-999.0,0.1,yes,no,yes,300534061252920,Snow_Buoy,AWI,unknown,North
2022-08-28T13:00:02Z,2022,13,0,240.5417,240.5417,89.8866,-24.265,1024.1,-999.0,-0.3,yes,no,yes,300534061252920,Snow_Buoy,AWI,unknown,North
2022-08-28T13:59:57Z,2022,14,0,240.5833,240.5833,89.8854,-23.737,1024.2,-999.0,-2.5,yes,no,yes,300534061252920,Snow_Buoy,AWI,unknown,North
2022-08-28T15:00:00Z,2022,15,0,240.625,240.625,89.8842,-23.2392,1024.5,-999.0,-2.9,yes,no,yes,300534061252920,Snow_Buoy,AWI,unknown,North
2022-08-28T16:01:03Z,2022,16,1,240.6674,240.6674,89.8828,-22.7972,1024.6,-999.0,-3.7,yes,no,yes,300534061252920,Snow_Buoy,AWI,unknown,North
2022-08-28T17:00:57Z,2022,17,1,240.709,240.709,89.881,-22.4968,1024.9,-999.0,-4.8,yes,no,yes,300534061252920,Snow_Buoy,AWI,unknown,North
2022-08-28T18:01:00Z,2022,18,1,240.7507,240.7507,89.8792,-22.3062,1025.1,-999.0,-5.0,yes,no,yes,300534061252920,Snow_Buoy,AWI,unknown,North
2022-08-28T19:01:03Z,2022,19,1,240.7924,240.7924,89.8772,-22.215,1025.2,-999.0,-5.0,yes,no,yes,300534061252920,Snow_Buoy,AWI,unknown,North
2022-08-28T20:00:57Z,2022,20,1,240.834,240.834,89.8758,-22.1806,1025.7,-999.0,-4.0,yes,no,yes,300534061252920,Snow_Buoy,AWI,unknown,North
2022-08-28T21:01:00Z,2022,21,1,240.8757,240.8757,89.8746,-22.084,1025.7,-999.0,-4.5,yes,no,yes,300534061252920,Snow_Buoy,AWI,unknown,North
2022-08-28T22:01:03Z,2022,22,1,240.9174,240.9174,89.8736,-21.9262,1025.9,-999.0,-4.9,yes,no,yes,300534061252920,Snow_Buoy,AWI,unknown,North
2022-08-28T23:00:57Z,2022,23,1,240.959,240.959,89.8728,-21.6548,1025.8,-999.0,-5.8,yes,no,yes,300534061252920,Snow_Buoy,AWI,unknown,North
2022-08-29T00:01:00Z,2022,0,1,241.0007,241.0007,89.8716,-21.2832,1026.3,-999.0,-5.8,yes,no,yes,300534061252920,Snow_Buoy,AWI,unknown,North
2022-08-29T01:01:03Z,2022,1,1,241.0424,241.0424,89.8706,-20.8008,1026.4,-999.0,-6.3,yes,no,yes,300534061252920,Snow_Buoy,AWI,unknown,North
2022-08-29T02:00:57Z,2022,2,1,241.084,241.084,89.8692,-20.3244,1026.4,-999.0,-6.9,yes,no,yes,300534061252920,Snow_Buoy,AWI,unknown,North
2022-08-29T03:01:00Z,2022,3,1,241.1257,241.1257,89.8678,-19.9416,1026.6,-999.0,-6.5,yes,no,yes,300534061252920,Snow_Buoy,AWI,unknown,North
2022-08-29T04:01:03Z,2022,4,1,241.1674,241.1674,89.8666,-19.6546,1026.7,-999.0,-6.7,yes,no,yes,300534061252920,Snow_Buoy,AWI,unknown,North
2022-08-29T05:00:57Z,2022,5,1,241.209,241.209,89.8652,-19.4488,1026.8,-999.0,-5.2,yes,no,yes,300534061252920,Snow_Buoy,AWI,unknown,North
2022-08-29T06:01:00Z,2022,6,1,241.2507,241.2507,89.864,-19.2994,1026.9,-999.0,-5.5,yes,no,yes,300534061252920,Snow_Buoy,AWI,unknown,North
2022-08-29T07:01:03Z,2022,7,1,241.2924,241.2924,89.8626,-19.2336,1027.1,-999.0,-5.4,yes,no,yes,300534061252920,Snow_Buoy,AWI,unknown,North
2022-08-29T08:00:57Z,2022,8,1,241.334,241.334,89.8612,-19.2314,1027.1,-999.0,-5.1,yes,no,yes,300534061252920,Snow_Buoy,AWI,unknown,North
2022-08-29T09:01:00Z,2022,9,1,241.3757,241.3757,89.8602,-19.206,1027.5,-999.0,-4.9,yes,no,yes,300534061252920,Snow_Buoy,AWI,unknown,North
2022-08-29T10:01:03Z,2022,10,1,241.4174,241.4174,89.8588,-19.085,1027.6,-999.0,-5.0,yes,no,yes,300534061252920,Snow_Buoy,AWI,unknown,North
2022-08-29T11:00:57Z,2022,11,1,241.459,241.459,89.8574,-18.8774,1027.9,-999.0,-5.0,yes,no,yes,300534061252920,Snow_Buoy,AWI,unknown,North
2022-08-29T12:01:00Z,2022,12,1,241.5007,241.5007,89.856,-18.5986,1028.0,-999.0,-3.6,yes,no,yes,300534061252920,Snow_Buoy,AWI,unknown,North
2022-08-29T13:01:03Z,2022,13,1,241.5424,241.5424,89.8546,-18.2238,1028.1,-999.0,-2.5,yes,no,yes,300534061252920,Snow_Buoy,AWI,unknown,North
2022-08-29T14:00:57Z,2022,14,1,241.584,241.584,89.8534,-17.8046,1028.0,-999.0,-1.8,yes,no,yes,300534061252920,Snow_Buoy,AWI,unknown,North
2022-08-29T15:01:00Z,2022,15,1,241.6257,241.6257,89.8522,-17.361,1028.0,-999.0,-1.6,yes,no,yes,300534061252920,Snow_Buoy,AWI,unknown,North
2022-08-29T16:01:03Z,2022,16,1,241.6674,241.6674,89.851,-16.9086,1027.9,-999.0,-1.3,yes,no,yes,300534061252920,Snow_Buoy,AWI,unknown,North
2022-08-29T17:00:57Z,2022,17,1,241.709,241.709,89.8494,-16.463,1027.9,-999.0,-1.3,yes,no,yes,300534061252920,Snow_Buoy,AWI,unknown,North
2022-08-29T18:01:00Z,2022,18,1,241.7507,241.7507,89.8478,-16.1336,1027.9,-999.0,-1.2,yes,no,yes,300534061252920,Snow_Buoy,AWI,unknown,North
2022-08-29T19:00:02Z,2022,19,0,241.7917,241.7917,89.846,-15.8812,1028.1,-999.0,-1.1,yes,no,yes,300534061252920,Snow_Buoy,AWI,unknown,North
2022-08-29T20:00:57Z,2022,20,1,241.834,241.834,89.8444,-15.6418,1028.0,-999.0,-1.6,yes,no,yes,300534061252920,Snow_Buoy,AWI,unknown,North
2022-08-29T21:01:00Z,2022,21,1,241.8757,241.8757,89.843,-15.3852,1027.9,-999.0,-3.3,yes,no,yes,300534061252920,Snow_Buoy,AWI,unknown,North
2022-08-29T22:01:03Z,2022,22,1,241.9174,241.9174,89.8414,-15.129,1028.5,-999.0,-2.8,yes,no,yes,300534061252920,Snow_Buoy,AWI,unknown,North
2022-08-29T23:00:57Z,2022,23,1,241.959,241.959,89.8398,-14.874,1028.4,-999.0,-2.9,yes,no,yes,300534061252920,Snow_Buoy,AWI,unknown,North
2022-08-30T00:01:00Z,2022,0,1,242.0007,242.0007,89.8378,-14.6026,1028.7,-999.0,-1.7,yes,no,yes,300534061252920,Snow_Buoy,AWI,unknown,North
2022-08-30T01:01:03Z,2022,1,1,242.0424,242.0424,89.836,-14.3332,1028.7,-999.0,-0.9,yes,no,yes,300534061252920,Snow_Buoy,AWI,unknown,North
2022-08-30T02:00:57Z,2022,2,1,242.084,242.084,89.834,-14.0596,1028.9,-999.0,-0.6,yes,no,yes,300534061252920,Snow_Buoy,AWI,unknown,North
2022-08-30T03:01:00Z,2022,3,1,242.1257,242.1257,89.8324,-13.7902,1028.8,-999.0,-0.5,yes,no,yes,300534061252920,Snow_Buoy,AWI,unknown,North
2022-08-30T04:01:03Z,2022,4,1,242.1674,242.1674,89.8306,-13.575,1028.6,-999.0,-1.6,yes,no,yes,300534061252920,Snow_Buoy,AWI,unknown,North
2022-08-30T05:00:57Z,2022,5,1,242.209,242.209,89.8288,-13.4022,1028.6,-999.0,-2.4,yes,no,yes,300534061252920,Snow_Buoy,AWI,unknown,North
2022-08-30T06:01:00Z,2022,6,1,242.2507,242.2507,89.827,-13.2564,1028.8,-999.0,-2.3,yes,no,yes,300534061252920,Snow_Buoy,AWI,unknown,North
2022-08-30T07:01:03Z,2022,7,1,242.2924,242.2924,89.825,-13.1348,1028.8,-999.0,-2.8,yes,no,yes,300534061252920,Snow_Buoy,AWI,unknown,North
2022-08-30T08:00:57Z,2022,8,1,242.334,242.334,89.823,-13.0624,1029.5,-999.0,-1.8,yes,no,yes,300534061252920,Snow_Buoy,AWI,unknown,North
2022-08-30T09:01:00Z,2022,9,1,242.3757,242.3757,89.8208,-13.0352,1029.1,-999.0,-2.2,yes,no,yes,300534061252920,Snow_Buoy,AWI,unknown,North
2022-08-30T10:01:03Z,2022,10,1,242.4174,242.4174,89.8186,-12.996,1029.1,-999.0,-2.8,yes,no,yes,300534061252920,Snow_Buoy,AWI,unknown,North
2022-08-30T11:00:57Z,2022,11,1,242.459,242.459,89.8168,-12.9686,1029.3,-999.0,-1.4,yes,no,yes,300534061252920,Snow_Buoy,AWI,unknown,North
2022-08-30T12:01:00Z,2022,12,1,242.5007,242.5007,89.815,-12.9642,1028.9,-999.0,-4.2,yes,no,yes,300534061252920,Snow_Buoy,AWI,unknown,North
2022-08-30T13:01:03Z,2022,13,1,242.5424,242.5424,89.8132,-12.9996,1029.1,-999.0,-4.8,yes,no,yes,300534061252920,Snow_Buoy,AWI,unknown,North
2022-08-30T13:59:57Z,2022,14,0,242.5833,242.5833,89.8116,-13.0654,1029.0,-999.0,-5.9,yes,no,yes,300534061252920,Snow_Buoy,AWI,unknown,North
2022-08-30T15:00:00Z,2022,15,0,242.625,242.625,89.8106,-13.0442,1028.7,-999.0,-5.7,yes,no,yes,300534061252920,Snow_Buoy,AWI,unknown,North
2022-08-30T16:00:02Z,2022,16,0,242.6667,242.6667,89.8096,-12.9818,1028.6,-999.0,-5.4,yes,no,yes,300534061252920,Snow_Buoy,AWI,unknown,North
2022-08-30T16:59:57Z,2022,17,0,242.7083,242.7083,89.8086,-12.9248,1028.6,-999.0,-4.5,yes,no,yes,300534061252920,Snow_Buoy,AWI,unknown,North
2022-08-30T18:00:00Z,2022,18,0,242.75,242.75,89.8078,-12.8988,1028.6,-999.0,-3.0,yes,no,yes,300534061252920,Snow_Buoy,AWI,unknown,North
2022-08-30T19:00:02Z,2022,19,0,242.7917,242.7917,89.8068,-12.8348,1028.4,-999.0,-3.3,yes,no,yes,300534061252920,Snow_Buoy,AWI,unknown,North
2022-08-30T19:59:57Z,2022,20,0,242.8333,242.8333,89.8058,-12.7368,1028.2,-999.0,-3.2,yes,no,yes,300534061252920,Snow_Buoy,AWI,unknown,North
2022-08-30T21:00:00Z,2022,21,0,242.875,242.875,89.805,-12.5686,1028.1,-999.0,-3.6,yes,no,yes,300534061252920,Snow_Buoy,AWI,unknown,North
2022-08-30T22:00:02Z,2022,22,0,242.9167,242.9167,89.8046,-12.3566,1028.2,-999.0,-3.1,yes,no,yes,300534061252920,Snow_Buoy,AWI,unknown,North
2022-08-30T22:59:57Z,2022,23,0,242.9583,242.9583,89.8042,-12.1368,1028.2,-999.0,-2.8,yes,no,yes,300534061252920,Snow_Buoy,AWI,unknown,North
2022-08-31T00:00:00Z,2022,0,0,243.0,243.0,89.8036,-11.952,1028.1,-999.0,-2.7,yes,no,yes,300534061252920,Snow_Buoy,AWI,unknown,North
2022-08-31T01:00:02Z,2022,1,0,243.0417,243.0417,89.8032,-11.8256,1027.9,-999.0,-2.5,yes,no,yes,300534061252920,Snow_Buoy,AWI,unknown,North
2022-08-31T01:59:57Z,2022,2,0,243.0833,243.0833,89.8032,-11.7896,1027.6,-999.0,-2.5,yes,no,yes,300534061252920,Snow_Buoy,AWI,unknown,North
2022-08-31T03:00:00Z,2022,3,0,243.125,243.125,89.8036,-11.7796,1027.5,-999.0,-2.1,yes,no,yes,300534061252920,Snow_Buoy,AWI,unknown,North
2022-08-31T04:00:02Z,2022,4,0,243.1667,243.1667,89.8046,-11.6828,1027.4,-999.0,-2.0,yes,no,yes,300534061252920,Snow_Buoy,AWI,unknown,North
2022-08-31T04:59:57Z,2022,5,0,243.2083,243.2083,89.8058,-11.5412,1027.1,-999.0,-1.7,yes,no,yes,300534061252920,Snow_Buoy,AWI,unknown,North
2022-08-31T06:00:00Z,2022,6,0,243.25,243.25,89.807,-11.3518,1026.7,-999.0,-1.6,yes,no,yes,300534061252920,Snow_Buoy,AWI,unknown,North
2022-08-31T07:00:02Z,2022,7,0,243.2917,243.2917,89.8084,-11.1012,1026.5,-999.0,-2.2,yes,no,yes,300534061252920,Snow_Buoy,AWI,unknown,North
2022-08-31T07:59:57Z,2022,8,0,243.3333,243.3333,89.8098,-10.8224,1026.7,-999.0,-2.3,yes,no,yes,300534061252920,Snow_Buoy,AWI,unknown,North
2022-08-31T09:00:00Z,2022,9,0,243.375,243.375,89.8106,-10.6218,1026.7,-999.0,-2.3,yes,no,yes,300534061252920,Snow_Buoy,AWI,unknown,North
2022-08-31T10:00:02Z,2022,10,0,243.4167,243.4167,89.8118,-10.6402,1026.4,-999.0,-2.3,yes,no,yes,300534061252920,Snow_Buoy,AWI,unknown,North
2022-08-31T10:59:57Z,2022,11,0,243.4583,243.4583,89.8132,-10.8416,1026.4,-999.0,-2.2,yes,no,yes,300534061252920,Snow_Buoy,AWI,unknown,North
2022-08-31T12:00:00Z,2022,12,0,243.5,243.5,89.8146,-11.2032,1025.9,-999.0,-2.1,yes,no,yes,300534061252920,Snow_Buoy,AWI,unknown,North
2022-08-31T13:00:02Z,2022,13,0,243.5417,243.5417,89.8164,-11.7522,1025.3,-999.0,-1.8,yes,no,yes,300534061252920,Snow_Buoy,AWI,unknown,North
2022-08-31T13:59:57Z,2022,14,0,243.5833,243.5833,89.819,-12.4482,1024.6,-999.0,-1.7,yes,no,yes,300534061252920,Snow_Buoy,AWI,unknown,North
2022-08-31T15:00:00Z,2022,15,0,243.625,243.625,89.8228,-13.2028,1024.1,-999.0,-1.7,yes,no,yes,300534061252920,Snow_Buoy,AWI,unknown,North
2022-08-31T16:00:02Z,2022,16,0,243.6667,243.6667,89.8268,-14.1572,1023.1,-999.0,-1.9,yes,no,yes,300534061252920,Snow_Buoy,AWI,unknown,North
2022-08-31T16:59:57Z,2022,17,0,243.7083,243.7083,89.8318,-15.2852,1022.8,-999.0,-1.9,yes,no,yes,300534061252920,Snow_Buoy,AWI,unknown,North
2022-08-31T18:01:00Z,2022,18,1,243.7507,243.7507,89.8368,-16.4148,1022.2,-999.0,-1.9,yes,no,yes,300534061252920,Snow_Buoy,AWI,unknown,North
2022-08-31T19:00:02Z,2022,19,0,243.7917,243.7917,89.8416,-17.4778,1021.5,-999.0,-1.8,yes,no,yes,300534061252920,Snow_Buoy,AWI,unknown,North
2022-08-31T20:00:57Z,2022,20,1,243.834,243.834,89.8462,-18.5208,1020.9,-999.0,-1.5,yes,no,yes,300534061252920,Snow_Buoy,AWI,unknown,North
2022-08-31T21:01:00Z,2022,21,1,243.8757,243.8757,89.8504,-19.5902,1020.2,-999.0,-1.3,yes,no,yes,300534061252920,Snow_Buoy,AWI,unknown,North
2022-08-31T22:01:03Z,2022,22,1,243.9174,243.9174,89.8552,-20.7816,1019.9,-999.0,-1.1,yes,no,yes,300534061252920,Snow_Buoy,AWI,unknown,North
2022-08-31T23:00:57Z,2022,23,1,243.959,243.959,89.8604,-21.9246,1019.2,-999.0,-1.5,yes,no,yes,300534061252920,Snow_Buoy,AWI,unknown,North
2022-09-01T00:01:00Z,2022,0,1,244.0007,244.0007,89.8658,-22.7238,1019.0,-999.0,-2.2,yes,no,yes,300534061252920,Snow_Buoy,AWI,unknown,North
2022-09-01T01:01:03Z,2022,1,1,244.0424,244.0424,89.8712,-23.2484,1018.9,-999.0,-2.2,yes,no,yes,300534061252920,Snow_Buoy,AWI,unknown,North
2022-09-01T02:00:57Z,2022,2,1,244.084,244.084,89.8768,-23.463,1018.8,-999.0,-2.0,yes,no,yes,300534061252920,Snow_Buoy,AWI,unknown,North
2022-09-01T03:01:00Z,2022,3,1,244.1257,244.1257,89.8824,-23.3886,1018.3,-999.0,-1.9,yes,no,yes,300534061252920,Snow_Buoy,AWI,unknown,North
2022-09-01T04:01:03Z,2022,4,1,244.1674,244.1674,89.8876,-23.115,1018.0,-999.0,-1.9,yes,no,yes,300534061252920,Snow_Buoy,AWI,unknown,North
2022-09-01T05:00:57Z,2022,5,1,244.209,244.209,89.8922,-22.6212,1017.8,-999.0,-1.9,yes,no,yes,300534061252920,Snow_Buoy,AWI,unknown,North
2022-09-01T06:01:00Z,2022,6,1,244.2507,244.2507,89.8958,-22.2096,1017.7,-999.0,-1.3,yes,no,yes,300534061252920,Snow_Buoy,AWI,unknown,North
2022-09-01T07:01:03Z,2022,7,1,244.2924,244.2924,89.8986,-21.9882,1017.5,-999.0,-0.9,yes,no,yes,300534061252920,Snow_Buoy,AWI,unknown,North
2022-09-01T08:00:57Z,2022,8,1,244.334,244.334,89.9004,-21.8356,1017.3,-999.0,-0.6,yes,no,yes,300534061252920,Snow_Buoy,AWI,unknown,North
2022-09-01T09:01:00Z,2022,9,1,244.3757,244.3757,89.9018,-21.6888,1017.1,-999.0,-0.2,yes,no,yes,300534061252920,Snow_Buoy,AWI,unknown,North
2022-09-01T10:01:03Z,2022,10,1,244.4174,244.4174,89.9028,-21.443,1016.9,-999.0,-0.6,yes,no,yes,300534061252920,Snow_Buoy,AWI,unknown,North
2022-09-01T11:01:58Z,2022,11,2,244.4597,244.4597,89.9036,-21.0364,1016.9,-999.0,-0.4,yes,no,yes,300534061252920,Snow_Buoy,AWI,unknown,North
2022-09-01T12:00:00Z,2022,12,0,244.5,244.5,89.9038,-20.2936,1016.6,-999.0,-0.8,yes,no,yes,300534061252920,Snow_Buoy,AWI,unknown,North
2022-09-01T13:01:03Z,2022,13,1,244.5424,244.5424,89.904,-19.1086,1016.6,-999.0,-1.5,yes,no,yes,300534061252920,Snow_Buoy,AWI,unknown,North
2022-09-01T13:59:57Z,2022,14,0,244.5833,244.5833,89.9038,-17.5154,1016.6,-999.0,-2.0,yes,no,yes,300534061252920,Snow_Buoy,AWI,unknown,North
2022-09-01T15:01:00Z,2022,15,1,244.6257,244.6257,89.9032,-15.487,1016.6,-999.0,-2.3,yes,no,yes,300534061252920,Snow_Buoy,AWI,unknown,North
2022-09-01T16:01:03Z,2022,16,1,244.6674,244.6674,89.9018,-13.2474,1016.7,-999.0,-3.2,yes,no,yes,300534061252920,Snow_Buoy,AWI,unknown,North
2022-09-01T17:00:57Z,2022,17,1,244.709,244.709,89.9,-11.0696,1016.5,-999.0,-3.3,yes,no,yes,300534061252920,Snow_Buoy,AWI,unknown,North
2022-09-01T18:01:00Z,2022,18,1,244.7507,244.7507,89.8972,-8.9436,1016.6,-999.0,-3.6,yes,no,yes,300534061252920,Snow_Buoy,AWI,unknown,North
2022-09-01T19:01:03Z,2022,19,1,244.7924,244.7924,89.8934,-7.2614,1016.7,-999.0,-4.1,yes,no,yes,300534061252920,Snow_Buoy,AWI,unknown,North
2022-09-01T20:00:57Z,2022,20,1,244.834,244.834,89.8896,-6.0814,1016.6,-999.0,-3.8,yes,no,yes,300534061252920,Snow_Buoy,AWI,unknown,North
2022-09-01T21:01:00Z,2022,21,1,244.8757,244.8757,89.8862,-5.2582,1016.4,-999.0,-3.7,yes,no,yes,300534061252920,Snow_Buoy,AWI,unknown,North
2022-09-01T22:01:03Z,2022,22,1,244.9174,244.9174,89.8836,-4.5768,1016.1,-999.0,-3.5,yes,no,yes,300534061252920,Snow_Buoy,AWI,unknown,North
2022-09-01T23:00:57Z,2022,23,1,244.959,244.959,89.8816,-3.7766,1015.6,-999.0,-3.4,yes,no,yes,300534061252920,Snow_Buoy,AWI,unknown,North
2022-09-02T00:01:00Z,2022,0,1,245.0007,245.0007,89.8796,-2.8464,1015.2,-999.0,-3.4,yes,no,yes,300534061252920,Snow_Buoy,AWI,unknown,North
2022-09-02T01:01:03Z,2022,1,1,245.0424,245.0424,89.8774,-1.7012,1014.8,-999.0,-3.7,yes,no,yes,300534061252920,Snow_Buoy,AWI,unknown,North
2022-09-02T02:00:57Z,2022,2,1,245.084,245.084,89.8748,-0.3666,1014.3,-999.0,-3.9,yes,no,yes,300534061252920,Snow_Buoy,AWI,unknown,North
2022-09-02T03:01:00Z,2022,3,1,245.1257,245.1257,89.872,1.2216,1014.0,-999.0,-4.0,yes,no,yes,300534061252920,Snow_Buoy,AWI,unknown,North
2022-09-02T04:01:03Z,2022,4,1,245.1674,245.1674,89.8684,2.9742,1013.8,-999.0,-4.3,yes,no,yes,300534061252920,Snow_Buoy,AWI,unknown,North
2022-09-02T05:00:57Z,2022,5,1,245.209,245.209,89.864,4.6682,1013.7,-999.0,-5.0,yes,no,yes,300534061252920,Snow_Buoy,AWI,unknown,North
2022-09-02T06:01:00Z,2022,6,1,245.2507,245.2507,89.8592,6.1216,1014.0,-999.0,-5.3,yes,no,yes,300534061252920,Snow_Buoy,AWI,unknown,North
2022-09-02T07:01:03Z,2022,7,1,245.2924,245.2924,89.8548,7.4084,1014.0,-999.0,-5.4,yes,no,yes,300534061252920,Snow_Buoy,AWI,unknown,North
2022-09-02T08:00:57Z,2022,8,1,245.334,245.334,89.8506,8.5378,1014.2,-999.0,-4.0,yes,no,yes,300534061252920,Snow_Buoy,AWI,unknown,North
2022-09-02T09:01:00Z,2022,9,1,245.3757,245.3757,89.8474,9.6268,1014.2,-999.0,-3.3,yes,no,yes,300534061252920,Snow_Buoy,AWI,unknown,North
2022-09-02T10:01:03Z,2022,10,1,245.4174,245.4174,89.8444,11.0026,1014.1,-999.0,-3.1,yes,no,yes,300534061252920,Snow_Buoy,AWI,unknown,North
2022-09-02T10:59:57Z,2022,11,0,245.4583,245.4583,89.842,12.4378,1014.1,-999.0,-3.2,yes,no,yes,300534061252920,Snow_Buoy,AWI,unknown,North
2022-09-02T12:00:00Z,2022,12,0,245.5,245.5,89.8388,14.2772,1013.8,-999.0,-3.7,yes,no,yes,300534061252920,Snow_Buoy,AWI,unknown,North
2022-09-02T13:01:03Z,2022,13,1,245.5424,245.5424,89.8356,16.3408,1013.7,-999.0,-3.7,yes,no,yes,300534061252920,Snow_Buoy,AWI,unknown,North
2022-09-02T13:59:57Z,2022,14,0,245.5833,245.5833,89.8314,18.4212,1013.5,-999.0,-4.1,yes,no,yes,300534061252920,Snow_Buoy,AWI,unknown,North
2022-09-02T15:00:00Z,2022,15,0,245.625,245.625,89.8268,20.0458,1013.2,-999.0,-3.5,yes,no,yes,300534061252920,Snow_Buoy,AWI,unknown,North
2022-09-02T16:00:02Z,2022,16,0,245.6667,245.6667,89.8224,21.4926,1012.8,-999.0,-3.1,yes,no,yes,300534061252920,Snow_Buoy,AWI,unknown,North
2022-09-02T16:59:57Z,2022,17,0,245.7083,245.7083,89.8184,22.7962,1012.3,-999.0,-2.8,yes,no,yes,300534061252920,Snow_Buoy,AWI,unknown,North
2022-09-02T18:00:00Z,2022,18,0,245.75,245.75,89.8142,24.135,1011.8,-999.0,-2.4,yes,no,yes,300534061252920,Snow_Buoy,AWI,unknown,North
2022-09-02T19:00:02Z,2022,19,0,245.7917,245.7917,89.81,25.4044,1011.3,-999.0,-2.2,yes,no,yes,300534061252920,Snow_Buoy,AWI,unknown,North
2022-09-02T19:59:57Z,2022,20,0,245.8333,245.8333,89.8064,26.6178,1010.9,-999.0,-2.3,yes,no,yes,300534061252920,Snow_Buoy,AWI,unknown,North
2022-09-02T21:00:00Z,2022,21,0,245.875,245.875,89.8034,27.8708,1010.4,-999.0,-2.1,yes,no,yes,300534061252920,Snow_Buoy,AWI,unknown,North
2022-09-02T22:00:02Z,2022,22,0,245.9167,245.9167,89.8008,29.3336,1009.9,-999.0,-2.0,yes,no,yes,300534061252920,Snow_Buoy,AWI,unknown,North
2022-09-02T22:59:57Z,2022,23,0,245.9583,245.9583,89.798,30.8874,1009.3,-999.0,-2.0,yes,no,yes,300534061252920,Snow_Buoy,AWI,unknown,North
2022-09-03T00:00:00Z,2022,0,0,246.0,246.0,89.7942,32.4638,1008.8,-999.0,-1.7,yes,no,yes,300534061252920,Snow_Buoy,AWI,unknown,North
2022-09-03T01:00:02Z,2022,1,0,246.0417,246.0417,89.789,33.8632,1008.2,-999.0,-1.7,yes,no,yes,300534061252920,Snow_Buoy,AWI,unknown,North
2022-09-03T01:59:57Z,2022,2,0,246.0833,246.0833,89.7822,35.1364,1007.6,-999.0,-2.7,yes,no,yes,300534061252920,Snow_Buoy,AWI,unknown,North
2022-09-03T03:00:00Z,2022,3,0,246.125,246.125,89.775,36.0152,1007.3,-999.0,-2.1,yes,no,yes,300534061252920,Snow_Buoy,AWI,unknown,North
2022-09-03T04:01:03Z,2022,4,1,246.1674,246.1674,89.7676,36.6984,1007.1,-999.0,-1.5,yes,no,yes,300534061252920,Snow_Buoy,AWI,unknown,North
2022-09-03T04:59:57Z,2022,5,0,246.2083,246.2083,89.7594,37.0354,1006.7,-999.0,-1.3,yes,no,yes,300534061252920,Snow_Buoy,AWI,unknown,North
2022-09-03T06:00:00Z,2022,6,0,246.25,246.25,89.7498,37.0408,1006.8,-999.0,-1.5,yes,no,yes,300534061252920,Snow_Buoy,AWI,unknown,North
2022-09-03T07:00:02Z,2022,7,0,246.2917,246.2917,89.74,36.7128,1007.0,-999.0,-1.7,yes,no,yes,300534061252920,Snow_Buoy,AWI,unknown,North
2022-09-03T07:59:57Z,2022,8,0,246.3333,246.3333,89.732,36.2334,1007.4,-999.0,-1.6,yes,no,yes,300534061252920,Snow_Buoy,AWI,unknown,North
2022-09-03T09:00:00Z,2022,9,0,246.375,246.375,89.7248,35.8544,1007.8,-999.0,-1.5,yes,no,yes,300534061252920,Snow_Buoy,AWI,unknown,North
2022-09-03T10:00:02Z,2022,10,0,246.4167,246.4167,89.7186,35.4956,1008.2,-999.0,-1.4,yes,no,yes,300534061252920,Snow_Buoy,AWI,unknown,North
2022-09-03T10:59:57Z,2022,11,0,246.4583,246.4583,89.7128,35.1826,1008.5,-999.0,-1.3,yes,no,yes,300534061252920,Snow_Buoy,AWI,unknown,North
2022-09-03T12:00:00Z,2022,12,0,246.5,246.5,89.7074,34.9258,1008.8,-999.0,-1.3,yes,no,yes,300534061252920,Snow_Buoy,AWI,unknown,North
2022-09-03T13:00:02Z,2022,13,0,246.5417,246.5417,89.7016,34.7364,1009.1,-999.0,-1.4,yes,no,yes,300534061252920,Snow_Buoy,AWI,unknown,North
2022-09-03T13:59:57Z,2022,14,0,246.5833,246.5833,89.695,34.5906,1009.3,-999.0,-1.9,yes,no,yes,300534061252920,Snow_Buoy,AWI,unknown,North
2022-09-03T15:00:00Z,2022,15,0,246.625,246.625,89.6882,34.5332,1009.4,-999.0,-1.3,yes,no,yes,300534061252920,Snow_Buoy,AWI,unknown,North
2022-09-03T16:00:02Z,2022,16,0,246.6667,246.6667,89.6806,34.5106,1009.5,-999.0,-1.2,yes,no,yes,300534061252920,Snow_Buoy,AWI,unknown,North